sat.trackr.live / text

‹ back to catalog

STARLINK-2513

NORAD 48317 · 2021-036AT

PAYLOAD ACTIVE UNKNOWN

§ Identity

Operator
Country
US
Launch date
2021-04-29
Launch site
AFETR
Launch vehicle
Mass (kg)
RCS (m²)

Purposes: comms

External: N2YO · Heavens-Above · Gunter

§ Orbital elements

Epoch: 2026-05-25T03:44:45.643776Z

Period
94.01 min
Inclination
53.1589°
Eccentricity
0.0001322
Mean motion
15.31701024 rev/d
Perigee alt
469.8 km
Apogee alt
471.6 km
Semi-major
6,848.9 km
B*
-1.2940e-5
RAAN
92.5346°
Arg perigee
103.4461°
Mean anomaly
256.6688°
Rev number
27,993

§ Raw data

STARLINK-25131 48317U 21036AT  26145.15608384 -.00000767  00000+0 -12940-4 0  99992 48317  53.1589  92.5346 0001322 103.4461 256.6688 15.31701024279937

JSON: /api/v1/satellites/48317 · /tle

For live sub-satellite position, see the globe view (requires WebGL).

§ Visibility from observer

Set your observer location to see the next 7 days of passes ≥ 10°. The values pass through the URL so the page stays shareable.

No JS? Fill the form by hand. The geolocation button needs JavaScript.